Beaufort, NC

11:18 AM EDT on October 18, 2017 (GMT -0400)
Smith

Weather History for KMRH - October, 2013

Change the Weather History Date:

Tuesday, October 15, 2013

  Actual Average Record
Temperature  
Mean Temperature 68 °F -  
Max Temperature 72 °F 77 °F 86 °F (1990)
Min Temperature 64 °F 54 °F 37 °F (1988)
Cooling Degree Days 2    
Growing Degree Days 18 (Base 50)    
Moisture  
Dew Point 65 °F    
Average Humidity 91    
Maximum Humidity 100    
Minimum Humidity 81    
Precipitation  
Precipitation 0.00 in - - ()
Sea Level Pressure  
Sea Level Pressure 30.02 in    
Wind  
Wind Speed 12 mph (North)    
Max Wind Speed 17 mph    
Max Gust Speed 30 mph    
Visibility 8 miles    
Events Rain    
Averages and records for this station are not official NWS values.
T = Trace of Precipitation, MM = Missing Value Source: NWS Daily Summary

Daily Weather History Graph

Daily Weather History Graph

Search for Another Location

Airport or City:

Trip Planner

Search our weather history database for the weather conditions in past years. The results will help you decide how hot, cold, wet, or windy it might be!

Date:

Astronomy

Oct. 15, 2013 Rise Set
Actual Time 7:12 AM EDT 6:31 PM EDT
Civil Twilight 6:47 AM EDT 6:57 PM EDT
Nautical Twilight 6:17 AM EDT 7:26 PM EDT
Astronomical Twilight 5:48 AM EDT 7:55 PM EDT
Moon 4:28 PM EDT (10/15) 3:40 AM EDT (10/15)
Length of Visible Light 12h 09m
Length of Day
11h 19m
Waxing Gibbous, 87% of the Moon is Illuminated
Oct 15
Waxing Gibbous
Oct 18
Full
Oct 26
Last Quarter
Nov 3
New
Nov 10
First Quarter

Hourly Weather History & Observations

Time (EDT) Temp. Dew Point Humidity Pressure Visibility Wind Dir Wind Speed Gust Speed Precip Events Conditions
12:58 AM 66.9 °F 63.0 °F 87% 30.08 in 10.0 mi NNE 16.1 mph 25.3 mph N/A   Overcast
1:58 AM 66.9 °F 63.0 °F 87% 30.08 in 10.0 mi North 13.8 mph 19.6 mph N/A   Overcast
2:58 AM 66.0 °F 63.0 °F 90% 30.06 in 10.0 mi North 11.5 mph - N/A   Overcast
3:27 AM 66.2 °F 62.6 °F 88% 30.05 in 10.0 mi North 12.7 mph - N/A   Overcast
3:49 AM 64.4 °F 62.6 °F 94% 30.05 in 10.0 mi North 11.5 mph - N/A   Overcast
3:58 AM 64.9 °F 62.1 °F 90% 30.05 in 10.0 mi North 11.5 mph - N/A   Overcast
4:58 AM 64.9 °F 62.1 °F 90% 30.05 in 10.0 mi NNE 11.5 mph 18.4 mph N/A   Overcast
5:58 AM 64.9 °F 63.0 °F 93% 30.06 in 7.0 mi North 10.4 mph - N/A   Overcast
6:58 AM 64.9 °F 63.0 °F 93% 30.05 in 10.0 mi North 12.7 mph - N/A   Overcast
7:58 AM 64.9 °F 63.0 °F 93% 30.05 in 8.0 mi North 13.8 mph - N/A   Overcast
8:10 AM 64.4 °F 62.6 °F 94% 30.05 in 8.0 mi North 10.4 mph - N/A   Overcast
8:58 AM 64.9 °F 63.0 °F 93% 30.07 in 7.0 mi NNW 11.5 mph - N/A   Overcast
9:58 AM 64.9 °F 63.0 °F 93% 30.07 in 2.0 mi North 12.7 mph - 0.00 in Rain Light Rain
10:18 AM 64.4 °F 64.4 °F 100% 30.07 in 4.0 mi North 8.1 mph - 0.00 in   Overcast
10:58 AM 64.9 °F 64.0 °F 97% 30.07 in 4.0 mi North 12.7 mph - 0.00 in   Overcast
11:58 AM 68.0 °F 64.9 °F 90% 30.05 in 5.0 mi North 13.8 mph - N/A   Overcast
12:34 PM 69.8 °F 66.2 °F 88% 30.03 in 9.0 mi North 13.8 mph - N/A   Overcast
12:58 PM 71.1 °F 64.9 °F 81% 30.02 in 10.0 mi North 11.5 mph - N/A   Overcast
1:58 PM 71.1 °F 66.0 °F 84% 30.00 in 10.0 mi North 17.3 mph 20.7 mph N/A   Overcast
2:38 PM 69.8 °F 66.2 °F 88% 29.99 in 5.0 mi North 9.2 mph - N/A   Overcast
2:58 PM 69.1 °F 66.0 °F 90% 29.99 in 7.0 mi North 11.5 mph - N/A   Overcast
3:32 PM 69.8 °F 66.2 °F 88% 29.99 in 10.0 mi North 10.4 mph - N/A   Overcast
3:58 PM 71.1 °F 66.9 °F 87% 29.99 in 9.0 mi North 9.2 mph - N/A   Overcast
4:58 PM 69.1 °F 66.9 °F 93% 29.99 in 8.0 mi North 12.7 mph 29.9 mph N/A   Overcast
5:58 PM 70.0 °F 66.9 °F 90% 29.99 in 8.0 mi North 9.2 mph - N/A   Overcast
6:07 PM 69.8 °F 66.2 °F 88% 29.98 in 8.0 mi North 8.1 mph - N/A   Overcast
6:58 PM 69.1 °F 66.9 °F 93% 30.00 in 10.0 mi North 9.2 mph - N/A   Mostly Cloudy
7:58 PM 69.1 °F 66.0 °F 90% 30.01 in 10.0 mi North 11.5 mph - N/A   Overcast
8:42 PM 68.0 °F 66.2 °F 94% 30.01 in 10.0 mi North 9.2 mph - N/A   Mostly Cloudy
8:58 PM 68.0 °F 66.0 °F 93% 30.01 in 10.0 mi North 10.4 mph - N/A   Overcast
9:23 PM 68.0 °F 66.2 °F 94% 30.01 in 10.0 mi North 9.2 mph - N/A   Scattered Clouds
9:34 PM 68.0 °F 66.2 °F 94% 30.01 in 9.0 mi North 8.1 mph - N/A   Mostly Cloudy
9:58 PM 68.0 °F 66.0 °F 93% 30.01 in 9.0 mi North 9.2 mph - N/A   Overcast
10:28 PM 68.0 °F 66.2 °F 94% 30.00 in 9.0 mi North 11.5 mph - N/A   Scattered Clouds
10:44 PM 66.2 °F 66.2 °F 100% 29.99 in 9.0 mi North 11.5 mph - N/A   Mostly Cloudy
10:58 PM 68.0 °F 66.0 °F 93% 30.00 in 9.0 mi NNE 9.2 mph - N/A   Overcast
11:06 PM 68.0 °F 66.2 °F 94% 29.99 in 9.0 mi NNE 10.4 mph - N/A   Overcast
11:58 PM 68.0 °F 66.0 °F 93% 29.98 in 9.0 mi North 10.4 mph - N/A   Overcast